Wetbulb
77.22 77.45 78.24 77.36 78.83 79.48 78.42 79.53 79.92 80.50 81.07 79.63 79.63 79.14 78.57 78.53 79.09 80.28 80.68 79.72 79.18 78.60 78.61 77.23 77.99 80.55 77.61 76.80 77.33 76.89 75.90 75.16 72.87 74.49 75.85 78.07 80.58 79.55 80.19 80.54 78.95 79.62 78.14
78.40 78.41 77.46 76.98 78.19 77.48 79.31 79.50 79.10 79.79 80.79 79.72 79.69 79.98 79.40 79.38 80.62 80.45 78.64 78.87 78.35 77.77 78.06 79.02 77.91 77.71 81.04 81.05 77.57 79.33 77.27 78.24 75.19 75.49 77.34 77.37 79.47 80.91 81.65 81.20 78.80 77.77 78.31
78.24 77.51 76.26 75.79 76.03 76.47 77.71 78.89 79.75 80.40 79.88 78.94 79.69 80.39 80.44 79.91 80.24 80.11 80.94 79.43 79.10 78.86 79.58 79.60 79.27 79.85 80.38 78.48 80.22 78.06 76.60 76.95 77.26 75.57 75.35 77.06 77.39 78.03 78.64 79.50 79.83 79.65 78.93
76.68 76.14 76.27 76.40 75.95 75.41 78.21 79.76 80.01 80.84 80.28 79.05 79.47 80.77 80.86 80.76 80.27 80.17 80.45 80.70 80.70 79.68 80.72 80.78 79.97 80.26 80.42 80.85 79.97 80.99 79.52 78.29 77.70 76.47 75.72 75.29 75.13 76.89 76.48 74.91 74.18 76.00 76.25
77.20 75.21 76.33 78.19 78.53 77.55 76.98 78.86 79.88 80.16 80.00 80.90 80.28 79.15 79.93 79.98 78.49 80.30 80.37 80.33 80.81 80.33 80.62 80.49 80.70 78.94 74.16 75.77 77.96 79.48 80.49 77.36 75.60 74.66 73.74 73.66 73.52 73.73 74.05 74.59 74.44 75.70 77.38
78.30 77.23 78.51 78.82 78.90 78.76 78.22 78.22 79.93 80.15 80.24 80.82 80.53 80.14 79.95 77.96 70.33 68.46 74.76 78.45 79.99 79.96 80.05 80.47 80.46 76.34 74.76 70.25 70.16 70.74 75.10 78.42 77.81 75.46 74.25 73.61 74.83 75.25 75.54 74.78 75.39 74.72 73.46
76.68 77.74 78.36 78.76 78.13 78.68 78.95 78.87 79.63 79.89 80.43 80.35 80.47 80.14 79.71 80.27 68.53 64.78 67.23 78.50 78.23 78.44 78.99 79.21 78.53 76.42 74.91 78.82 72.12 68.49 68.95 67.67 69.01 76.88 76.66 76.67 76.79 78.25 78.68 77.60 76.31 76.11 75.08
75.80 75.86 76.98 77.50 77.63 78.39 78.80 78.76 79.11 78.88 78.85 78.73 78.73 80.09 79.95 79.11 67.52 63.40 64.96 77.39 78.24 78.97 78.89 78.65 78.49 78.66 78.41 77.81 78.44 78.09 78.30 78.51 77.33 75.34 76.08 77.68 78.89 79.52 79.51 78.55 77.49 76.99 75.60
75.41 76.03 76.72 75.92 76.50 75.99 76.23 77.50 78.80 78.75 77.97 77.74 77.95 78.57 79.33 80.11 66.34 62.97 66.30 76.74 76.06 77.15 78.09 78.75 78.72 78.26 72.51 66.49 77.80 78.01 78.23 78.37 73.07 66.09 66.12 66.31 66.04 64.80 67.49 74.43 73.55 72.86 71.62
70.87 75.07 75.88 71.90 75.76 74.87 74.24 74.11 76.28 77.21 76.34 76.22 77.34 78.84 74.92 79.41 68.26 60.97 65.51 76.03 75.73 75.03 77.52 78.24 69.03 74.40 67.96 64.98 76.65 77.71 77.01 78.13 78.71 78.88 79.88 76.31 70.20 75.00 65.05 72.57 75.87 73.52 71.86
71.30 71.68 71.33 72.69 72.95 72.05 72.13 72.29 72.31 73.98 74.66 77.18 77.57 78.37 78.63 78.09 78.80 62.18 59.80 76.36 75.83 75.49 75.44 76.13 77.05 63.67 61.64 60.98 61.89 77.93 76.83 77.67 76.18 77.37 77.44 77.62 77.95 78.93 79.33 78.70 76.10 75.34 72.58
69.66 70.25 69.32 69.78 70.64 71.33 71.54 71.12 70.76 72.43 74.13 73.57 76.67 76.35 77.11 79.01 69.10 67.44 58.30 60.17 70.75 76.06 76.40 76.68 76.77 60.49 59.00 56.73 60.01 62.73 59.63 62.68 74.56 74.80 75.10 75.83 76.17 77.57 79.16 78.93 78.09 72.98 68.19
69.14 69.81 70.40 69.97 69.31 70.22 70.33 70.84 70.13 71.91 70.51 71.68 72.69 74.00 75.86 78.86 77.02 59.68 58.52 57.33 58.00 67.30 76.40 72.04 62.08 60.11 58.96 61.31 57.82 58.76 58.63 73.45 74.37 74.27 74.65 76.39 77.46 78.19 77.46 72.62 68.57 65.80 64.62
68.41 69.49 70.33 69.34 69.12 70.17 69.59 71.07 70.64 68.62 68.32 68.86 68.84 69.20 69.47 72.91 68.68 65.63 65.26 64.53 65.06 67.06 66.88 72.62 70.05 66.71 61.78 64.90 68.69 71.37 74.04 75.46 75.32 75.95 75.98 77.17 78.75 76.34 73.92 74.14 70.21 67.11 64.86
67.90 67.89 68.79 68.49 68.75 69.02 69.71 69.18 67.79 66.79 64.39 67.34 66.92 68.79 67.58 66.89 63.99 51.17 52.31 62.32 63.74 62.64 55.07 69.13 73.95 76.83 77.57 75.98 76.51 77.77 77.88 79.01 76.40 75.69 76.41 76.72 74.92 75.02 74.34 71.64 69.60 64.95 64.10
65.08 65.23 64.63 67.08 67.11 67.15 67.38 67.21 57.65 56.68 50.83 49.74 49.01 56.11 63.61 52.73 47.89 45.37 44.96 44.39 44.74 45.77 62.96 70.98 72.99 74.97 75.04 75.13 74.20 73.95 75.22 74.35 76.57 75.67 75.74 75.92 74.89 74.08 73.30 71.11 68.26 64.68 63.23
63.54 63.17 63.45 62.73 65.89 64.86 66.50 65.74 65.10 59.51 50.70 47.74 47.56 47.74 47.55 46.05 45.75 45.21 45.39 46.11 45.75 49.11 65.84 71.55 71.02 70.87 71.26 72.25 72.12 72.76 73.89 76.00 77.64 77.05 76.98 74.74 74.76 74.23 72.56 70.59 66.33 64.82 63.42
62.22 52.98 60.83 62.36 63.25 63.06 63.08 63.73 63.63 64.51 64.89 64.84 52.58 52.94 48.90 47.87 45.68 45.93 47.56 54.74 64.63 59.29 61.42 61.81 62.87 62.68 62.86 62.88 63.55 64.58 67.81 71.18 73.72 74.83 76.05 76.63 72.92 72.67 71.08 68.94 65.96 65.39 64.50
60.40 60.73 61.30 61.89 62.23 59.93 61.21 62.78 63.05 62.44 62.65 63.63 65.22 56.30 55.27 50.80 48.21 47.91 51.36 63.45 61.77 61.46 60.58 60.34 59.84 58.57 58.05 58.04 58.33 58.70 60.00 62.81 64.49 67.65 71.82 74.64 74.76 72.71 71.54 68.97 67.50 59.95 61.69
60.32 57.77 54.44 58.77 60.66 60.80 62.40 60.73 61.72 61.47 61.89 61.49 61.21 62.54 61.71 59.81 63.13 63.27 63.34 62.60 62.29 62.09 61.39 59.81 58.73 56.85 54.84 54.23 54.43 54.95 55.91 58.21 61.81 64.42 66.23 69.65 70.97 70.30 68.43 68.43 68.42 65.88 64.04
59.15 59.29 58.95 58.61 59.28 59.76 59.75 59.26 59.81 60.25 60.42 60.83 61.11 59.86 47.73 57.72 60.48 62.18 62.16 61.44 60.93 60.59 59.99 58.60 57.08 55.49 54.03 52.12 51.35 51.02 51.43 52.91 54.69 56.39 58.67 64.11 66.92 67.71 68.16 68.45 68.63 66.80 66.00
58.56 58.56 58.54 58.71 59.35 59.18 58.70 58.91 58.05 58.37 58.83 59.12 59.89 59.36 46.88 58.69 60.25 60.83 61.09 61.56 61.46 60.90 59.76 58.61 57.78 56.47 54.66 53.59 50.37 49.78 49.33 49.49 49.08 49.33 52.12 56.63 63.93 64.28 65.43 66.46 66.82 65.74 65.06
55.88 58.36 58.29 58.00 58.01 56.27 57.54 57.52 57.79 58.08 57.61 57.37 57.98 58.31 58.97 58.38 58.63 58.79 59.03 59.50 60.87 60.77 60.61 58.22 57.60 57.43 55.97 53.90 51.95 48.86 48.04 46.16 45.34 46.28 48.90 52.70 57.95 64.19 63.75 63.45 63.81 63.51 63.61
49.66 52.47 56.28 57.14 57.23 57.12 57.26 56.61 56.43 52.46 55.28 55.93 56.30 56.88 57.14 57.58 57.78 58.15 57.30 57.66 57.81 57.96 58.63 58.04 57.17 56.31 55.05 54.21 53.27 50.81 47.88 42.01 40.15 46.23 47.43 50.15 54.57 58.26 62.99 63.34 63.60 63.27 62.93
49.59 49.45 50.91 55.58 56.42 56.71 56.27 55.67 55.82 55.90 55.95 56.34 56.30 55.92 56.04 56.17 56.02 56.80 57.03 56.79 56.39 55.89 55.99 55.78 55.51 54.58 53.99 52.84 51.87 49.67 38.32 31.30 39.12 36.60 48.86 51.08 54.60 56.51 59.38 62.31 63.19 62.26 62.26
50.38 48.93 49.52 51.93 52.76 54.56 55.42 55.42 55.20 55.45 55.18 55.31 55.34 55.47 55.60 55.23 55.63 56.05 56.73 56.59 55.45 54.94 54.95 55.07 55.24 54.59 53.73 53.56 49.33 38.03 33.12 31.17 38.38 31.74 42.99 54.74 54.60 54.40 54.47 56.57 59.10 59.80 60.47
MSLP
1011.64 1012.38 1013.22 1013.86 1014.37 1014.88 1014.78 1014.99 1015.26 1015.25 1015.68 1016.12 1016.34 1016.65 1016.73 1016.90 1017.15 1017.38 1017.62 1017.42 1017.75 1017.87 1017.89 1017.78 1017.95 1017.95 1017.50 1016.92 1016.55 1016.55 1016.51 1016.31 1015.76 1015.04 1015.00 1014.57 1014.35 1014.21 1013.89 1013.80 1013.99 1013.72 1013.03
1011.04 1011.66 1012.51 1013.25 1013.63 1014.03 1014.40 1014.60 1015.04 1015.22 1015.48 1015.92 1016.11 1016.35 1016.45 1016.52 1016.72 1016.91 1016.99 1016.80 1017.02 1017.11 1017.24 1017.40 1017.40 1017.25 1017.20 1017.25 1016.98 1016.66 1016.32 1016.13 1016.09 1015.31 1014.84 1014.16 1013.83 1013.51 1013.37 1013.40 1013.24 1012.74 1012.16
1010.59 1011.23 1011.81 1012.42 1012.96 1013.32 1013.67 1014.13 1014.45 1014.78 1015.17 1015.30 1015.63 1015.83 1015.98 1016.11 1016.17 1016.33 1016.64 1016.65 1016.45 1016.32 1016.41 1016.53 1016.67 1016.78 1016.81 1016.73 1016.52 1016.23 1015.83 1015.54 1015.24 1014.90 1014.38 1013.98 1013.29 1012.82 1012.38 1012.27 1011.89 1011.56 1011.24
1009.77 1010.63 1011.40 1011.80 1012.21 1012.63 1013.09 1013.46 1013.87 1014.10 1014.51 1014.77 1014.78 1014.98 1015.29 1015.47 1015.61 1015.70 1015.80 1015.95 1016.04 1015.99 1015.96 1015.93 1016.04 1016.19 1016.34 1016.43 1016.38 1016.25 1016.00 1015.71 1015.23 1014.73 1013.84 1013.10 1012.49 1012.07 1011.76 1011.21 1011.01 1010.93 1010.34
1009.29 1010.15 1010.60 1011.13 1011.61 1012.13 1012.44 1012.90 1013.31 1013.58 1013.86 1014.12 1014.32 1014.55 1014.73 1014.85 1014.85 1015.07 1015.16 1015.17 1015.28 1015.40 1015.47 1015.52 1015.47 1015.56 1015.71 1015.84 1015.75 1015.42 1015.41 1015.27 1014.68 1014.12 1013.49 1012.94 1012.33 1011.92 1011.94 1011.61 1011.08 1010.54 1010.26
1008.70 1009.47 1009.98 1010.51 1011.14 1011.74 1012.18 1012.43 1012.70 1013.07 1013.47 1013.55 1013.59 1013.73 1013.95 1013.96 1013.86 1014.24 1014.52 1014.45 1014.46 1014.60 1014.63 1014.75 1014.78 1014.90 1015.02 1015.12 1015.10 1015.13 1015.22 1015.10 1014.74 1014.42 1013.96 1013.23 1012.82 1012.60 1012.20 1011.99 1011.39 1011.01 1010.45
1008.64 1009.19 1009.72 1010.33 1010.93 1011.32 1011.71 1012.08 1012.15 1012.52 1013.00 1013.28 1013.49 1013.56 1013.36 1013.48 1013.64 1013.88 1014.11 1014.25 1014.06 1013.93 1013.99 1013.99 1013.90 1013.66 1013.67 1013.73 1013.67 1013.88 1014.00 1014.04 1014.07 1013.81 1013.56 1012.95 1012.66 1012.46 1012.33 1011.95 1011.53 1011.42 1011.47
1008.86 1009.35 1009.84 1010.11 1010.37 1010.77 1011.17 1011.61 1011.84 1012.22 1012.71 1013.27 1013.20 1013.07 1013.02 1013.00 1013.23 1013.39 1013.62 1013.87 1013.67 1013.59 1013.47 1013.41 1013.37 1013.27 1013.26 1013.26 1013.20 1013.08 1012.84 1012.70 1012.57 1012.82 1012.82 1012.30 1012.12 1011.97 1011.87 1011.40 1011.35 1011.39 1011.36
1008.68 1009.34 1009.82 1010.37 1010.47 1010.94 1011.47 1011.60 1012.15 1012.44 1012.71 1012.60 1012.58 1012.65 1012.57 1012.46 1012.77 1012.98 1013.24 1013.23 1012.96 1012.77 1012.68 1012.73 1012.60 1012.49 1012.42 1012.62 1012.74 1012.45 1012.11 1011.68 1011.04 1011.28 1011.14 1010.90 1010.78 1010.83 1011.06 1011.50 1011.03 1011.06 1010.79
1009.68 1009.97 1010.42 1011.13 1010.46 1011.56 1011.91 1011.89 1012.11 1012.67 1012.38 1012.00 1011.82 1011.64 1011.73 1011.99 1012.15 1012.42 1012.68 1012.62 1012.11 1011.70 1011.46 1011.32 1011.36 1011.59 1011.72 1011.79 1011.90 1011.73 1011.40 1010.94 1010.73 1010.58 1010.45 1010.53 1010.18 1009.92 1010.17 1010.74 1009.91 1010.42 1010.74
1010.50 1010.82 1011.19 1011.21 1011.16 1012.33 1012.36 1011.93 1010.08 1012.07 1012.43 1011.98 1011.52 1011.30 1011.35 1011.32 1011.44 1011.50 1011.70 1011.88 1011.44 1010.88 1010.49 1010.01 1009.83 1009.83 1009.84 1010.24 1010.80 1010.86 1010.66 1010.48 1010.34 1010.34 1009.95 1009.56 1009.17 1009.20 1009.52 1009.75 1010.24 1010.23 1010.40
1010.85 1011.06 1011.80 1012.12 1012.34 1012.24 1011.59 1011.90 1011.21 1011.21 1012.00 1012.18 1011.91 1011.28 1010.68 1010.81 1010.75 1010.95 1011.04 1011.21 1010.99 1010.92 1010.30 1009.78 1009.51 1010.61 1010.50 1010.65 1010.72 1010.43 1010.41 1010.63 1010.39 1009.81 1009.26 1008.62 1008.31 1008.61 1009.16 1009.53 1009.41 1009.68 1010.40
1011.00 1011.00 1011.22 1011.37 1011.48 1011.43 1011.71 1011.91 1012.23 1012.52 1013.25 1012.82 1012.50 1011.50 1010.85 1010.51 1010.69 1011.23 1011.58 1011.70 1011.68 1011.71 1010.72 1010.26 1010.01 1009.75 1009.88 1009.96 1009.93 1009.78 1009.86 1009.88 1009.40 1008.90 1008.46 1008.04 1008.24 1008.26 1008.87 1009.63 1010.06 1010.54 1010.91
1011.13 1010.85 1010.93 1011.19 1011.49 1011.53 1011.68 1012.12 1012.36 1013.25 1014.10 1013.35 1013.44 1012.91 1012.01 1011.48 1012.09 1012.34 1012.30 1012.12 1011.62 1011.23 1011.01 1010.52 1010.02 1009.80 1009.57 1009.47 1009.48 1009.24 1009.15 1008.79 1008.32 1008.06 1008.00 1007.69 1007.67 1008.19 1008.71 1008.93 1009.63 1010.44 1010.83
1011.09 1011.11 1010.90 1010.96 1011.08 1011.42 1011.66 1012.28 1012.91 1013.70 1013.80 1013.67 1013.66 1013.46 1013.16 1012.65 1012.93 1013.61 1013.58 1012.46 1011.96 1011.78 1011.84 1010.56 1009.66 1009.12 1008.68 1008.39 1008.38 1008.41 1007.87 1007.87 1008.02 1007.63 1007.48 1007.52 1007.59 1007.98 1008.23 1008.63 1009.24 1010.11 1010.43
1011.73 1011.63 1011.60 1010.64 1010.79 1010.92 1011.01 1011.98 1012.54 1012.96 1013.46 1013.52 1013.94 1013.71 1013.28 1013.68 1013.65 1013.37 1013.28 1012.75 1012.17 1012.00 1011.65 1010.12 1009.10 1008.78 1008.37 1008.19 1008.21 1007.85 1007.83 1007.50 1007.43 1007.32 1007.14 1007.14 1007.29 1007.21 1007.42 1008.20 1008.79 1009.34 1009.71
1012.82 1012.72 1012.33 1011.74 1011.25 1011.26 1011.17 1010.82 1010.81 1013.23 1013.34 1013.07 1013.61 1013.86 1014.13 1014.15 1013.97 1013.35 1012.74 1012.25 1011.71 1011.73 1011.44 1010.22 1009.80 1009.73 1009.51 1009.27 1009.04 1008.71 1008.14 1007.87 1007.42 1006.92 1006.69 1006.63 1006.78 1006.29 1006.90 1007.79 1008.82 1009.11 1009.10
1012.93 1012.98 1012.76 1012.26 1011.95 1011.86 1011.52 1010.87 1011.00 1010.82 1011.08 1011.79 1012.93 1013.01 1013.19 1013.04 1012.94 1012.83 1012.36 1011.26 1011.57 1011.72 1011.78 1011.68 1011.31 1011.00 1010.94 1010.80 1010.39 1009.97 1009.12 1007.93 1007.32 1007.04 1006.75 1006.32 1006.09 1006.41 1006.22 1007.81 1008.34 1008.68 1008.80
1012.32 1012.22 1012.24 1011.97 1011.88 1011.97 1011.84 1011.16 1010.75 1011.06 1011.25 1010.83 1010.42 1011.63 1011.96 1011.73 1011.85 1012.49 1012.18 1012.10 1012.10 1011.99 1011.96 1012.01 1011.90 1011.65 1011.69 1011.71 1011.36 1010.75 1010.16 1009.18 1008.54 1007.68 1007.06 1006.64 1006.16 1006.25 1006.47 1007.11 1007.55 1008.09 1008.30
1011.89 1012.28 1012.85 1012.12 1011.44 1011.07 1010.86 1011.06 1011.13 1011.24 1010.99 1010.89 1010.68 1010.35 1011.48 1011.58 1011.00 1011.16 1011.71 1011.68 1011.99 1011.99 1011.81 1011.88 1011.83 1012.07 1012.09 1012.17 1011.89 1011.43 1010.74 1009.79 1009.05 1008.28 1007.53 1006.81 1006.37 1006.34 1006.51 1006.67 1006.98 1007.54 1008.01
1011.53 1011.50 1011.94 1011.82 1011.12 1010.87 1010.83 1010.82 1010.62 1010.55 1010.39 1010.35 1010.30 1010.98 1012.14 1011.97 1011.39 1011.06 1011.01 1011.69 1011.88 1011.86 1011.64 1012.05 1012.48 1012.49 1012.24 1012.29 1012.13 1011.96 1011.58 1010.90 1010.31 1009.55 1008.79 1007.65 1006.75 1006.50 1006.45 1006.39 1006.49 1006.93 1007.34
1011.45 1011.12 1010.82 1010.53 1010.44 1010.53 1010.60 1010.51 1010.60 1010.40 1010.23 1010.34 1010.44 1010.82 1011.32 1011.18 1010.83 1010.51 1010.59 1011.17 1011.45 1011.89 1011.98 1012.16 1012.30 1012.41 1012.33 1012.35 1012.35 1011.99 1011.82 1011.63 1011.23 1010.54 1009.95 1008.77 1007.40 1006.98 1006.75 1006.63 1006.71 1006.89 1007.08
1012.11 1011.24 1010.69 1010.39 1010.19 1010.21 1010.53 1010.43 1010.15 1009.96 1010.10 1010.29 1010.27 1010.04 1010.30 1010.44 1010.47 1010.39 1010.48 1010.77 1011.06 1011.36 1011.55 1011.94 1011.58 1011.64 1012.07 1012.30 1012.47 1012.35 1011.97 1012.00 1011.96 1011.39 1010.51 1009.78 1008.54 1007.45 1007.29 1007.13 1007.07 1007.10 1006.99
1013.74 1012.65 1010.99 1010.21 1009.85 1009.66 1009.60 1009.64 1009.71 1009.95 1010.23 1010.20 1010.27 1010.06 1009.95 1010.04 1010.00 1009.98 1010.51 1010.40 1010.56 1010.87 1011.00 1011.02 1011.04 1010.92 1011.17 1011.41 1011.60 1011.92 1011.98 1012.36 1011.98 1011.30 1010.95 1010.17 1009.31 1008.29 1007.38 1007.46 1007.42 1007.07 1006.80
1013.77 1013.08 1012.41 1010.39 1009.93 1009.62 1009.63 1009.71 1009.62 1009.53 1009.41 1009.37 1009.41 1009.65 1009.73 1009.75 1009.89 1009.89 1009.86 1009.95 1010.30 1010.53 1010.57 1010.43 1010.35 1010.29 1010.57 1010.88 1010.98 1011.30 1012.21 1012.46 1012.02 1011.37 1010.47 1010.14 1009.47 1008.88 1007.90 1007.52 1007.34 1007.22 1007.11
1013.93 1013.34 1012.64 1011.84 1010.99 1010.26 1009.99 1009.81 1009.66 1009.56 1009.45 1009.38 1009.32 1009.26 1009.22 1009.19 1009.22 1009.36 1009.51 1009.63 1009.94 1009.93 1010.05 1010.21 1010.00 1010.27 1010.51 1010.24 1011.00 1011.76 1011.83 1011.87 1011.61 1011.16 1010.53 1009.61 1009.41 1009.10 1008.55 1008.21 1007.63 1007.24 1007.09
Wind_Speed
17 16 15 15 14 13 10 10 10 8 8 8 8 9 9 8 9 8 8 5 9 8 7 7 8 8 8 8 6 7 7 8 10 10 10 10 10 10 10 8 9 10 11
15 14 16 16 15 16 13 12 13 11 9 11 10 10 10 10 10 10 10 9 11 10 10 9 10 8 9 8 8 8 9 8 10 12 11 10 9 9 6 8 9 10 12
16 15 16 17 16 17 16 15 13 13 11 13 13 11 11 11 10 11 11 11 10 10 9 9 10 9 9 9 8 9 9 8 8 10 11 10 10 10 8 9 10 11 10
16 17 15 15 17 17 15 14 14 13 13 13 13 13 13 12 13 12 11 11 10 10 10 10 10 10 10 9 10 9 10 11 11 11 11 11 10 10 10 10 10 9 10
16 16 16 15 14 14 14 13 13 14 14 14 13 11 12 13 12 13 12 11 11 11 11 11 12 12 11 10 10 10 9 11 11 11 12 12 11 10 11 12 11 10 9
15 16 14 13 13 12 10 11 14 14 14 14 14 14 14 13 13 13 12 13 13 13 12 12 12 12 13 15 17 18 16 13 13 12 12 14 14 12 11 11 12 11 12
12 12 12 12 12 12 12 13 13 14 13 15 14 14 15 13 12 9 12 11 12 12 12 11 12 13 12 14 16 20 18 17 18 15 15 15 14 12 12 13 13 11 10
12 12 11 12 14 13 12 12 12 11 12 13 15 15 14 13 12 11 12 13 13 14 15 15 15 15 15 14 15 15 15 14 14 13 16 16 15 14 12 13 12 8 7
10 9 12 9 11 6 7 7 8 10 11 13 14 14 14 13 11 13 10 14 15 16 15 15 16 16 16 11 13 15 15 15 14 15 17 19 18 15 10 9 10 9 10
9 6 5 5 8 5 4 3 4 12 12 12 13 13 14 14 12 12 11 12 14 13 14 16 18 19 16 16 14 14 14 14 12 13 12 12 10 11 11 8 9 9 6
4 5 5 3 5 4 2 4 6 12 14 13 12 10 13 13 14 16 14 13 11 12 13 13 13 16 23 21 16 14 13 11 11 11 13 12 10 10 8 5 7 7 5
5 5 5 2 1 1 3 3 2 8 12 10 11 11 9 13 13 12 12 16 14 12 13 12 11 9 5 8 7 14 11 10 10 11 12 12 10 7 6 6 4 4 6
6 7 6 5 3 3 2 2 2 8 6 7 9 10 8 6 5 12 11 5 10 8 11 13 19 19 11 9 15 14 11 10 12 12 12 10 6 7 4 5 7 8 6
4 5 8 5 6 4 4 3 2 3 1 3 5 5 6 7 7 8 7 7 6 4 7 9 10 13 13 14 14 10 8 10 10 8 10 9 6 2 3 4 4 4 3
4 5 5 6 5 8 3 2 5 3 2 1 2 5 5 5 7 7 7 8 7 6 9 9 9 9 9 7 6 8 9 6 8 9 9 7 5 6 5 5 3 4 4
5 6 6 3 5 5 7 8 4 9 11 10 4 5 4 8 10 11 13 11 11 6 6 9 9 9 9 6 9 9 7 9 8 7 5 5 6 7 8 6 5 6 5
4 4 4 4 2 4 2 2 7 6 6 9 8 7 3 3 5 7 10 13 11 2 5 7 5 5 6 6 5 6 7 7 10 9 7 6 7 8 6 5 5 5 5
6 7 6 7 6 5 6 5 4 2 2 7 9 8 6 5 5 7 12 11 5 3 6 7 7 7 7 7 7 8 10 10 9 9 9 8 6 9 5 4 6 7 7
6 5 4 3 3 4 7 9 6 4 6 3 2 8 5 5 3 5 3 7 6 6 6 6 6 6 7 7 7 7 8 8 8 8 10 9 7 4 4 5 6 9 8
7 4 4 7 6 5 0 4 3 5 3 4 5 6 6 9 3 4 5 4 6 6 5 5 6 6 6 6 8 8 7 8 9 8 7 6 3 2 3 5 6 7 7
7 5 4 6 8 4 4 5 4 5 5 5 3 5 5 3 8 4 3 4 5 5 6 6 6 5 4 5 5 6 8 7 8 9 9 8 5 3 3 4 4 6 6
9 8 8 7 6 4 5 4 6 6 5 6 4 4 8 3 6 5 3 3 3 3 4 3 4 4 5 5 5 4 5 7 8 9 9 10 7 5 4 3 2 4 6
12 11 10 8 8 4 5 8 8 6 5 6 7 7 4 5 5 6 3 6 3 3 1 3 4 3 3 4 4 5 5 5 6 7 8 10 10 5 3 3 3 5 6
9 15 15 10 9 8 7 6 7 5 7 7 8 7 6 6 7 6 5 5 4 4 4 4 4 3 3 4 2 3 4 4 4 5 9 7 9 10 4 4 5 5 5
9 8 14 10 9 8 8 9 8 9 8 7 7 7 8 7 7 7 6 5 5 6 7 5 5 4 6 5 5 7 8 6 9 8 6 7 7 11 8 6 5 6 5
10 9 9 10 10 8 9 8 9 9 9 9 9 9 9 8 8 8 8 7 6 6 6 7 6 5 6 6 9 5 3 5 8 8 7 6 5 5 6 8 10 5 5
Wind_Direction
197 191 199 200 203 217 218 213 220 218 188 225 201 222 215 221 222 216 248 280 196 225 255 257 235 266 278 277 251 243 260 272 282 297 314 304 311 286 281 282 303 299 278
193 194 192 199 201 204 215 210 210 214 211 207 215 211 229 224 213 222 232 243 218 229 234 233 243 246 229 241 267 269 275 292 288 288 283 285 303 293 297 285 265 287 282
195 196 196 201 203 213 206 218 207 207 205 214 211 214 214 224 227 219 226 247 259 249 238 239 239 246 246 261 281 294 291 286 288 296 304 288 286 286 277 263 251 249 262
195 195 199 203 206 209 217 207 219 210 204 217 213 209 218 218 220 225 223 226 238 251 254 249 250 242 245 250 252 258 262 261 267 267 275 282 290 304 291 297 324 309 297
186 198 203 205 206 213 208 217 212 214 212 218 218 218 217 222 224 219 226 227 230 238 247 255 247 244 251 256 268 270 297 288 285 293 296 295 295 304 316 304 291 298 317
189 198 203 198 203 212 217 208 216 216 219 223 221 220 220 229 225 211 228 235 228 225 230 235 242 244 238 229 231 236 248 257 261 272 283 283 292 294 307 305 308 302 305
211 198 201 198 206 214 214 225 219 220 223 227 230 230 234 237 247 216 217 235 249 249 252 257 258 258 245 253 231 230 241 245 243 259 267 267 278 282 290 289 289 306 301
202 205 208 208 208 208 214 224 230 228 229 235 237 237 241 242 234 217 212 237 247 249 253 256 257 261 265 268 272 274 268 265 246 235 238 257 263 267 262 265 281 288 289
185 192 209 209 207 198 236 242 261 252 238 236 241 240 242 242 235 229 215 247 249 248 249 249 251 254 255 245 256 262 264 263 265 249 251 258 259 266 268 289 277 279 278
27 111 101 61 114 93 184 106 349 276 256 250 245 246 238 246 229 209 200 246 252 251 244 242 227 238 238 229 238 252 258 263 270 279 280 267 249 252 244 235 264 262 271
63 76 34 16 267 246 252 321 92 278 267 258 254 258 257 251 242 220 207 233 249 253 252 254 252 223 225 226 223 241 246 261 269 278 275 275 266 269 283 231 230 249 262
84 102 114 81 50 234 24 300 65 323 282 293 271 259 249 246 242 244 205 212 239 253 268 278 288 66 360 284 251 249 266 281 269 269 273 272 278 290 307 328 325 91 61
109 116 119 112 65 37 112 219 218 227 279 303 292 273 272 273 261 60 48 338 272 270 276 296 321 312 282 257 235 238 232 242 258 265 264 274 294 277 319 107 91 91 87
92 105 142 110 142 158 190 219 205 46 244 251 307 326 337 338 37 13 356 334 322 294 275 282 293 271 281 276 299 255 239 248 252 262 273 274 289 277 204 173 158 161 163
72 95 147 136 120 140 103 78 98 79 54 316 358 300 341 341 13 344 307 315 320 336 335 278 268 271 270 280 276 266 255 264 264 262 277 280 263 217 217 167 170 172 198
51 23 9 18 116 114 124 155 101 131 156 134 140 17 44 54 356 340 324 303 278 286 273 279 287 286 284 273 264 273 293 289 275 262 250 259 241 250 200 189 190 193 194
334 342 358 314 38 348 95 83 127 180 186 148 169 170 156 306 315 310 313 299 279 172 283 316 329 330 331 334 338 335 321 315 303 281 260 234 242 246 239 172 197 209 194
303 179 276 283 303 310 327 349 334 80 53 137 212 187 148 34 1 329 333 340 44 41 8 347 348 349 346 340 335 330 324 323 310 304 299 281 238 250 148 186 199 219 208
278 297 311 304 284 306 288 282 280 315 316 309 112 189 141 21 246 223 352 14 1 353 351 344 351 355 350 340 336 333 323 315 309 304 303 299 292 146 223 205 208 222 206
257 166 257 295 288 276 324 309 272 236 251 326 339 354 29 321 6 34 3 16 345 338 346 344 357 355 357 347 341 335 331 335 334 330 325 313 323 223 204 215 219 204 214
283 257 171 269 268 310 323 293 302 313 316 327 303 117 137 342 308 347 18 355 345 334 348 351 338 339 356 352 352 345 345 342 341 341 332 329 326 280 250 251 221 222 217
282 275 274 263 269 248 277 303 305 297 303 297 293 162 181 286 285 327 334 316 337 321 331 326 316 340 349 350 344 351 344 343 341 342 327 325 327 328 333 331 265 202 211
295 275 270 267 266 241 245 253 253 264 280 293 301 294 253 282 303 304 317 293 292 285 325 299 318 331 340 343 344 352 358 355 329 320 323 323 320 321 294 284 250 235 224
308 317 297 275 271 281 278 288 269 225 261 275 272 283 301 293 295 289 281 277 305 300 280 260 273 301 328 322 358 342 5 342 304 308 319 313 310 327 294 282 266 243 215
295 302 307 287 278 264 244 243 263 263 272 267 256 252 260 274 289 288 285 303 306 300 275 286 281 350 321 331 348 9 35 337 319 322 315 304 316 328 335 311 237 229 236
307 305 295 301 300 301 281 272 275 278 279 280 282 279 282 285 283 266 270 268 266 272 320 294 303 303 304 296 68 45 6 325 329 327 323 320 331 335 350 334 333 341 340